This is the latest recevied weather packets stored in our database for station/object G4ZMG. If no packets are shown the sender has not sent any weather packets the latest 10 day(s).
| Time | Temp. | Humidity | Pressure | Rain* | Wind** | Luminosity | Snow |
|---|---|---|---|---|---|---|---|
| 1777737633 | 16.11° C | 66% | 1011.1 hPa | 0 mm | - | 95 W/m² | - |
| 1777737024 | 16.67° C | 66% | 1011.1 hPa | 0 mm | - | 121 W/m² | - |
| 1777736408 | 16.67° C | 63% | 1011.2 hPa | 0 mm | - | 156 W/m² | - |
| 1777735803 | 16.67° C | 62% | 1011.3 hPa | 0 mm | - | 169 W/m² | - |
| 1777735245 | 16.67° C | 63% | 1011.5 hPa | 0 mm | - | 211 W/m² | - |
| 1777734640 | 16.67° C | 64% | 1011.7 hPa | 0 mm | - | 214 W/m² | - |
| 1777734047 | 16.67° C | 64% | 1011.8 hPa | 0 mm | - | 214 W/m² | - |
| 1777733443 | 16.67° C | 64% | 1012 hPa | 0 mm | - | 204 W/m² | - |
| 1777732838 | 16.67° C | 65% | 1012.2 hPa | 0 mm | - | 218 W/m² | - |
| 1777732232 | 16.67° C | 63% | 1012.4 hPa | 0 mm | - | 237 W/m² | - |
| 1777731626 | 16.67° C | 66% | 1012.7 hPa | 0 mm | - | 257 W/m² | - |
| 1777731007 | 16.67° C | 66% | 1012.8 hPa | 0 mm | - | 262 W/m² | - |
| 1777730426 | 17.22° C | 66% | 1012.9 hPa | 0 mm | - | 302 W/m² | - |
| 1777729812 | 16.67° C | 65% | 1013.2 hPa | 0 mm | - | 383 W/m² | - |
| 1777729204 | 16.67° C | 67% | 1013.3 hPa | 0 mm | - | 392 W/m² | - |
| 1777728646 | 16.67° C | 67% | 1013.4 hPa | 0 mm | - | 359 W/m² | - |
| 1777728044 | 16.67° C | 68% | 1013.4 hPa | 0 mm | - | 374 W/m² | - |
| 1777727439 | 17.22° C | 66% | 1013.3 hPa | 0 mm | - | 431 W/m² | - |
| 1777726843 | 17.22° C | 65% | 1013.4 hPa | 0 mm | - | 422 W/m² | - |
| 1777726236 | 17.22° C | 65% | 1013.7 hPa | 0 mm | - | 686 W/m² | - |
| 1777725630 | 16.67° C | 68% | 1014 hPa | 0 mm | - | 561 W/m² | - |
| 1777725021 | 16.11° C | 68% | 1014.1 hPa | 0 mm | - | 396 W/m² | - |
| 1777724410 | 16.11° C | 68% | 1014 hPa | 0 mm | - | 373 W/m² | - |
| 1777723805 | 16.67° C | 67% | 1014.2 hPa | 0 mm | - | 468 W/m² | - |
| 1777723233 | 16.11° C | 68% | 1014.3 hPa | 0 mm | - | 392 W/m² | - |
* Rain latest hour (hover to see other rain measurements)
** Current wind speed in m/s (hover to see current wind gust speed)